Location: Hampton Plantation State Historic Site
(33.1998°N, 79.4353°W)
Time: 03:25:27
(UTC-05:00)

N. Korean satellite - Visible Passes

Search period start: 01 December 2020 00:00
Search period end: 11 December 2020 00:00
Orbit: 453 x 504 km, 97.2° (Epoch: 30 November)

Date Brightness Start Highest point End Pass type
(mag) Time Alt. Az. Time Alt. Az. Time Alt. Az.
01 Dec 7.4 05:28:34 10° NNE 05:32:08 52° E 05:35:43 10° S visible
01 Dec 8.5 17:32:53 10° SSW 17:35:59 33° W 17:39:08 10° NNW visible
02 Dec 9.2 05:02:51 10° NE 05:05:46 22° E 05:08:41 10° SSE visible
02 Dec 8.1 06:36:28 10° NNW 06:38:53 17° WNW 06:41:18 10° WSW visible
03 Dec 7.1 06:09:20 10° N 06:12:43 37° WNW 06:16:08 10° SW visible
04 Dec 6.6 05:42:47 10° NNE 05:46:28 88° ESE 05:50:08 10° SSW visible
04 Dec 9.5 17:47:41 10° SSW 17:50:19 21° W 17:52:59 10° NW visible
05 Dec 8.3 05:16:43 10° NNE 05:20:06 35° E 05:23:30 10° SSE visible
06 Dec 9.7 04:51:22 10° NE 04:53:39 16° E 04:55:56 10° SE visible
06 Dec 7.7 06:23:55 10° NNW 06:26:55 24° WNW 06:29:55 10° SW visible
07 Dec 6.6 05:57:04 10° N 06:00:40 56° WNW 06:04:17 10° SSW visible
07 Dec 9.9 18:02:51 10° SW 18:04:36 13° W 18:06:21 10° WNW visible
08 Dec 7.2 05:30:43 10° NNE 05:34:20 57° E 05:37:58 10° S visible
08 Dec 8.7 17:35:01 10° SSW 17:38:05 31° W 17:41:13 10° NNW visible
09 Dec 9.0 05:04:51 10° NE 05:07:55 24° E 05:10:56 10° SSE visible
09 Dec 8.2 06:38:40 10° NNW 06:41:00 16° WNW 06:43:18 10° WSW visible
10 Dec 10.1 04:40:25 10° ENE 04:41:23 11° E 04:42:20 10° ESE visible
10 Dec 7.2 06:11:24 10° N 06:14:46 34° WNW 06:18:09 10° SW visible
